This is the latest recevied weather packets stored in our database for station/object S57PNX-8. If no packets are shown the sender has not sent any weather packets the latest 10 day(s).
| Time | Temp. | Humidity | Pressure | Rain* | Wind** | Luminosity | Snow |
|---|---|---|---|---|---|---|---|
| 1777574144 | 8.33° C | 39% | 1027.9 hPa | - | - | - | - |
| 1777573245 | 8.89° C | 38% | 1027.8 hPa | - | - | - | - |
| 1777572346 | 9.44° C | 39% | 1027.6 hPa | - | - | - | - |
| 1777571447 | 10.56° C | 38% | 1027.5 hPa | - | - | - | - |
| 1777570548 | 11.11° C | 37% | 1027.3 hPa | - | - | - | - |
| 1777569649 | 11.67° C | 36% | 1027.3 hPa | - | - | - | - |
| 1777568749 | 12.22° C | 38% | 1027.2 hPa | - | - | - | - |
| 1777567850 | 12.22° C | 37% | 1027.2 hPa | - | - | - | - |
| 1777566952 | 12.78° C | 37% | 1027.3 hPa | - | - | - | - |
| 1777566052 | 13.33° C | 35% | 1027.5 hPa | - | - | - | - |
| 1777565230 | 14.44° C | 35% | 1027.6 hPa | - | - | - | - |
| 1777565152 | 14.44° C | 35% | 1027.6 hPa | - | - | - | - |
| 1777564253 | 13.89° C | 35% | 1027.6 hPa | - | - | - | - |
| 1777563354 | 13.89° C | 37% | 1027.8 hPa | - | - | - | - |
| 1777562455 | 14.44° C | 37% | 1027.6 hPa | - | - | - | - |
| 1777561557 | 12.22° C | 40% | 1027.7 hPa | - | - | - | - |
| 1777560657 | 11.67° C | 39% | 1027.5 hPa | - | - | - | - |
| 1777559758 | 11.67° C | 41% | 1027.7 hPa | - | - | - | - |
| 1777558860 | 11.11° C | 42% | 1027.7 hPa | - | - | - | - |
| 1777557961 | 10.56° C | 43% | 1027.6 hPa | - | - | - | - |
| 1777557063 | 10.56° C | 45% | 1027.6 hPa | - | - | - | - |
| 1777556164 | 10° C | 45% | 1027.4 hPa | - | - | - | - |
| 1777555264 | 10° C | 46% | 1027.6 hPa | - | - | - | - |
| 1777554365 | 10° C | 46% | 1027.7 hPa | - | - | - | - |
| 1777553466 | 9.44° C | 46% | 1027.8 hPa | - | - | - | - |
* Rain since midnight (hover to see other rain measurements)
** Current wind speed in m/s (hover to see current wind gust speed)